Weather History for Santa Barbara, CA

Change the Weather History Date:

Monday, March 24, 2014

  Actual Average Record
Temperature  
Mean Temperature 58 °F 56 °F  
Max Temperature 62 °F 66 °F 83 °F (1988)
Min Temperature 54 °F 46 °F 38 °F (1957)
Degree Days  
Heating Degree Days 7 9  
Month to date heating degree days 122 232  
Since 1 July heating degree days 1357 1833  
Cooling Degree Days 0 0  
Month to date cooling degree days 5 0  
Year to date cooling degree days 5 0  
Growing Degree Days 8 (Base 50)    
Moisture  
Dew Point 52 °F    
Average Humidity 83    
Maximum Humidity 93    
Minimum Humidity 72    
Precipitation  
Precipitation 0.00 in 0.09 in 1.73 in (1948)
Month to date precipitation 0.83 2.66  
Year to date precipitation 4.67 10.12  
Since 1 July precipitation 6.03 15.83  
Sea Level Pressure  
Sea Level Pressure 30.06 in    
Wind  
Wind Speed 5 mph (SE)    
Max Wind Speed 15 mph    
Max Gust Speed 20 mph    
Visibility 9 miles    
Events      
T = Trace of Precipitation, MM = Missing Value Source: NWS Daily Summary

Daily Weather History Graph

Daily Weather History Graph

Search for Another Location

Airport:

Trip Planner

Search our weather history database for the weather conditions in past years. The results will help you decide how hot, cold, wet, or windy it might be!

Date:

Astronomy

Mar. 24, 2014 Rise Set
Actual Time 6:57 AM PDT 7:14 PM PDT
Civil Twilight 6:32 AM PDT 7:39 PM PDT
Nautical Twilight 6:02 AM PDT 8:08 PM PDT
Astronomical Twilight 5:33 AM PDT 8:38 PM PDT
Moon 2:18 AM PDT (3/24) 12:58 PM PDT (3/24)
Length of Visible Light 13h 07m
Length of Day
12h 16m
Last Quarter, 42% of the Moon is Illuminated
Mar 24
Last Quarter
Mar 30
New
Apr 7
First Quarter
Apr 15
Full
Apr 22
Last Quarter

Hourly Weather History & Observations

Time (PDT) Temp. Dew Point Humidity Pressure Visibility Wind Dir Wind Speed Gust Speed Precip Events Conditions
12:23 AM 57.2 °F 51.8 °F 82% 30.06 in 9.0 mi East 9.2 mph - N/A   Mostly Cloudy
12:53 AM 57.9 °F 53.1 °F 84% 30.07 in 10.0 mi East 10.4 mph - N/A   Overcast
1:53 AM 57.0 °F 53.1 °F 87% 30.08 in 9.0 mi East 5.8 mph - N/A   Overcast
2:40 AM 55.4 °F 51.8 °F 88% 30.07 in 9.0 mi ENE 6.9 mph 19.6 mph N/A   Scattered Clouds
2:53 AM 55.9 °F 52.0 °F 87% 30.07 in 9.0 mi ESE 3.5 mph - N/A   Clear
3:43 AM 55.4 °F 51.8 °F 88% 30.07 in 9.0 mi ESE 3.5 mph - N/A   Mostly Cloudy
3:53 AM 55.9 °F 51.1 °F 84% 30.07 in 9.0 mi East 3.5 mph - N/A   Mostly Cloudy
4:53 AM 57.0 °F 52.0 °F 83% 30.07 in 10.0 mi ENE 4.6 mph - N/A   Overcast
5:53 AM 57.0 °F 52.0 °F 83% 30.08 in 10.0 mi East 3.5 mph - N/A   Overcast
6:53 AM 57.0 °F 52.0 °F 83% 30.09 in 9.0 mi NNE 3.5 mph - N/A   Overcast
7:53 AM 57.0 °F 52.0 °F 83% 30.09 in 9.0 mi North 3.5 mph - N/A   Overcast
8:53 AM 59.0 °F 52.0 °F 78% 30.10 in 9.0 mi Calm Calm - N/A   Overcast
9:53 AM 59.0 °F 52.0 °F 78% 30.12 in 9.0 mi ENE 3.5 mph - N/A   Overcast
10:53 AM 59.0 °F 52.0 °F 78% 30.12 in 9.0 mi SE 3.5 mph - N/A   Overcast
11:37 AM 60.8 °F 51.8 °F 72% 30.12 in 9.0 mi Variable 3.5 mph - N/A   Overcast
11:53 AM 60.1 °F 52.0 °F 75% 30.12 in 10.0 mi SSE 3.5 mph - N/A   Overcast
12:53 PM 61.0 °F 52.0 °F 72% 30.11 in 10.0 mi South 5.8 mph - N/A   Overcast
1:53 PM 62.1 °F 53.1 °F 72% 30.08 in 8.0 mi SW 6.9 mph - N/A   Overcast
2:53 PM 62.1 °F 54.0 °F 75% 30.05 in 9.0 mi Variable 6.9 mph - N/A   Overcast
3:53 PM 61.0 °F 53.1 °F 75% 30.04 in 10.0 mi West 9.2 mph - N/A   Overcast
4:53 PM 61.0 °F 53.1 °F 75% 30.01 in 10.0 mi West 11.5 mph - N/A   Mostly Cloudy
5:51 PM 60.8 °F 53.6 °F 77% 30.01 in 10.0 mi West 11.5 mph - N/A   Scattered Clouds
5:53 PM 60.1 °F 53.1 °F 78% 30.01 in 10.0 mi West 11.5 mph - N/A   Partly Cloudy
6:34 PM 57.2 °F 51.8 °F 82% 30.01 in 10.0 mi West 10.4 mph - N/A   Mostly Cloudy
6:53 PM 57.0 °F 51.1 °F 81% 30.01 in 10.0 mi West 8.1 mph - N/A   Mostly Cloudy
7:53 PM 57.0 °F 51.1 °F 81% 30.01 in 10.0 mi West 3.5 mph - N/A   Overcast
8:53 PM 55.9 °F 52.0 °F 87% 30.01 in 10.0 mi Calm Calm - N/A   Overcast
9:31 PM 55.4 °F 51.8 °F 88% 30.02 in 10.0 mi SSE 3.5 mph - N/A   Overcast
9:53 PM 55.9 °F 51.1 °F 84% 30.03 in 10.0 mi SSE 6.9 mph - N/A   Overcast
10:53 PM 55.9 °F 52.0 °F 87% 30.03 in 9.0 mi ESE 9.2 mph - N/A   Overcast
11:53 PM 55.9 °F 53.1 °F 90% 30.04 in 6.0 mi SE 9.2 mph - N/A   Overcast